Date,TemperatureHighF,TemperatureAvgF,TemperatureLowF,DewpointHighF,DewpointAvgF,DewpointLowF,HumidityHigh,HumidityAvg,HumidityLow,PressureMaxIn,PressureMinIn,WindSpeedMaxMPH,WindSpeedAvgMPH,GustSpeedMaxMPH,PrecipitationSumIn
2013-1-1,38.1,35.7,31.6,37.6,33.7,28.6,98,93,86,30.33,30.05,13,3,14,0.01
2013-1-2,39.7,32.0,26.7,31.0,28.0,25.0,94,85,68,30.37,30.26,11,2,0,0.00
2013-1-3,47.9,34.2,23.1,33.5,27.9,21.8,97,79,48,30.51,30.36,9,1,0,0.00
2013-1-4,48.1,39.3,31.3,34.3,30.5,27.8,90,72,47,30.55,30.36,8,0,0,0.00
2013-1-5,53.1,41.3,30.4,38.8,35.2,28.8,95,80,57,30.37,30.21,11,1,0,0.00
2013-1-6,56.2,38.7,27.7,32.7,27.5,22.9,97,69,30,30.44,30.30,11,1,0,0.00
2013-1-7,53.2,37.6,23.8,35.5,30.0,22.5,96,76,47,30.36,30.12,14,2,14,0.00
2013-1-8,46.7,43.9,39.8,46.1,39.8,32.2,98,86,72,30.13,30.00,9,2,0,0.65
2013-1-9,54.2,50.4,46.7,53.6,49.9,46.2,98,98,97,30.21,30.01,20,4,20,0.87
2013-1-10,57.8,52.9,46.4,55.5,50.4,44.6,99,91,79,30.04,29.86,16,4,16,0.15
2013-1-11,66.8,54.3,45.1,58.1,48.6,42.8,94,82,51,29.92,29.75,25,4,25,0.00
2013-1-12,62.8,48.1,31.8,61.2,43.8,27.4,97,85,62,30.00,29.71,21,4,21,0.02
2013-1-13,39.2,31.1,25.0,27.4,22.4,18.2,84,71,51,30.36,29.96,18,4,18,0.00
2013-1-14,42.1,31.2,24.0,22.2,19.0,15.4,82,62,40,30.44,30.27,15,3,15,0.00
2013-1-15,37.3,31.3,26.3,27.4,22.9,19.8,79,71,60,30.30,30.20,13,2,13,0.00
2013-1-16,47.4,33.3,20.9,26.8,20.3,16.0,83,62,31,30.31,30.17,12,1,12,0.00
2013-1-17,58.1,41.9,28.3,35.8,29.9,23.2,85,64,38,30.52,30.26,11,2,0,0.00
2013-1-18,60.2,41.6,25.5,37.4,32.3,24.3,96,73,39,30.53,30.25,17,3,17,0.00
2013-1-19,65.7,49.7,38.7,43.5,39.3,33.6,94,70,43,30.25,30.12,13,2,13,0.00
2013-1-20,69.4,48.0,30.8,48.5,40.2,30.1,98,78,39,30.23,30.08,13,1,13,0.00
2013-1-21,52.7,41.5,31.7,40.5,26.2,20.0,90,56,33,30.34,30.15,15,2,15,0.00
2013-1-22,62.4,44.8,30.1,44.4,34.6,21.6,88,69,48,30.33,30.18,12,1,12,0.00
2013-1-23,73.3,55.1,38.2,54.8,47.7,36.5,96,78,51,30.26,30.10,12,2,0,0.00
2013-1-24,69.2,54.9,45.7,57.3,51.2,44.6,98,88,66,30.16,30.04,11,2,0,0.00
2013-1-25,51.8,42.7,37.2,46.8,39.4,36.4,98,89,63,30.23,30.04,11,2,0,0.01
2013-1-26,47.1,44.0,39.0,45.5,42.5,36.0,98,95,87,30.25,30.10,10,2,0,0.00
2013-1-27,70.6,57.8,44.6,61.9,54.6,44.1,99,90,71,30.11,29.89,22,6,22,0.00
2013-1-28,75.4,69.6,64.1,66.3,63.9,61.9,94,83,70,29.98,29.76,23,8,25,0.00
2013-1-29,72.8,63.3,49.9,66.7,57.9,33.6,95,83,50,29.78,29.42,27,7,29,0.59
2013-1-30,50.9,42.4,31.6,41.3,30.2,24.0,86,63,38,30.12,29.62,25,6,26,0.00
2013-1-31,66.4,42.8,27.5,31.8,27.0,22.4,90,61,23,30.38,30.07,23,3,23,0.00
2013-2-1,54.9,35.7,24.6,36.4,24.6,14.2,78,64,45,30.44,30.17,14,2,14,0.00
2013-2-2,65.4,48.1,34.4,38.6,34.8,31.0,94,64,32,30.33,30.14,12,1,0,0.00
2013-2-3,65.7,48.1,30.1,38.9,33.3,28.5,95,62,31,30.33,29.99,14,2,13,0.00
2013-2-4,72.3,61.1,49.6,54.7,51.6,46.0,94,72,51,29.91,29.77,15,2,15,0.00
2013-2-5,56.6,52.0,48.4,55.7,51.3,47.1,98,97,95,30.03,29.88,6,1,0,0.00
2013-2-6,66.3,57.5,51.0,63.4,55.8,50.7,99,94,84,30.02,29.86,18,6,18,0.01
2013-2-7,75.0,60.2,48.7,60.1,53.4,42.3,98,81,33,30.11,29.77,21,5,25,0.00
2013-2-8,59.6,47.4,37.5,43.4,36.5,32.8,86,68,37,30.28,30.11,12,2,0,0.00
2013-2-9,55.7,46.3,43.0,54.9,42.2,35.8,98,86,70,30.14,29.71,23,7,23,0.00
2013-2-10,65.0,54.9,38.7,57.6,39.9,28.0,98,63,26,30.04,29.64,25,4,25,0.69
2013-2-11,54.2,46.0,40.6,38.4,32.8,29.4,79,61,41,30.20,30.04,14,2,14,0.00
2013-2-12,45.7,42.3,37.5,42.6,39.9,35.8,97,91,74,30.09,29.88,24,3,24,1.07
2013-2-13,57.4,42.5,35.1,41.5,36.3,32.8,95,81,41,30.15,30.00,14,2,14,0.00
2013-2-14,66.2,48.2,31.2,43.2,36.1,30.4,97,68,30,30.16,30.00,15,1,15,0.00
2013-2-15,49.7,43.6,32.1,37.5,28.0,19.8,81,55,33,30.38,30.16,15,3,15,0.00
2013-2-16,54.7,40.1,29.3,33.3,27.7,21.5,83,63,36,30.43,30.18,11,1,0,0.00
2013-2-17,60.3,58.0,56.8,39.6,37.4,35.1,52,46,39,29.88,29.86,20,9,20,0.00
2013-2-18,71.8,55.7,43.8,56.1,41.3,30.8,85,60,35,30.13,29.71,31,5,31,0.00
2013-2-19,56.6,47.8,36.3,31.6,28.5,22.6,76,49,29,30.34,30.18,10,2,0,0.00
2013-2-20,41.5,38.6,36.3,38.6,35.1,31.7,94,87,83,30.24,29.90,20,8,20,0.56
2013-2-21,57.7,46.8,37.5,46.7,39.5,33.3,96,77,50,29.97,29.63,22,5,22,0.25
2013-2-22,45.9,35.1,26.0,28.7,24.4,18.8,81,65,47,30.18,30.04,10,2,0,0.00
2013-2-23,52.2,39.5,26.3,32.8,28.5,21.9,84,66,40,30.15,29.94,9,1,0,0.00
2013-2-24,66.3,54.9,32.9,45.8,40.0,28.8,87,59,40,29.95,29.64,22,7,22,0.00
2013-2-25,52.1,45.9,37.0,47.0,40.7,34.5,95,82,63,29.69,29.43,20,5,20,0.18
2013-2-26,54.8,47.9,38.5,35.4,33.1,30.8,83,58,41,29.90,29.77,22,6,22,0.00
2013-2-27,53.9,44.6,34.8,32.8,28.5,21.9,86,55,31,30.24,30.05,22,7,22,0.00
2013-2-28,53.9,39.5,28.9,32.1,28.1,25.0,89,66,37,30.30,30.19,18,3,18,0.00
2013-3-1,49.5,38.0,30.5,32.6,29.0,26.5,86,71,51,30.30,30.22,14,2,14,0.00
2013-3-2,52.9,41.4,27.9,30.5,26.4,21.1,86,57,37,30.45,30.24,15,3,15,0.00
2013-3-3,69.8,51.0,30.5,40.2,32.5,25.7,88,53,29,30.24,29.71,25,6,25,0.00
2013-3-4,83.7,65.3,49.7,45.0,42.0,36.2,71,47,19,29.85,29.54,30,7,30,0.00
2013-3-5,54.1,46.2,39.3,40.2,26.7,18.8,74,49,27,30.39,29.84,25,7,26,0.00
2013-3-6,55.3,42.9,29.7,30.0,24.4,6.5,75,50,17,30.48,30.20,11,1,0,0.00
2013-3-7,70.3,53.9,37.0,34.7,29.5,24.5,69,42,21,30.24,30.08,22,5,22,0.00
2013-3-8,61.5,56.5,51.9,55.4,48.4,34.1,91,75,47,30.17,29.94,20,6,20,0.00
2013-3-9,65.8,59.4,55.0,63.6,57.0,53.8,97,92,81,29.94,29.60,24,7,24,0.74
2013-3-10,55.4,46.2,37.0,54.0,39.1,30.6,97,77,61,30.09,29.67,23,6,23,0.04
2013-3-11,58.4,41.5,28.6,35.7,27.8,20.0,94,63,25,30.12,30.00,20,2,20,0.00
2013-3-12,62.2,48.1,35.3,40.4,32.7,26.8,88,59,28,30.33,30.04,15,2,15,0.00
2013-3-13,66.0,51.0,34.6,40.6,34.9,28.5,87,57,33,30.48,30.32,12,2,12,0.00
2013-3-14,77.9,59.4,42.7,48.8,41.9,33.9,75,55,32,30.34,30.13,19,3,19,0.00
2013-3-15,81.3,66.0,53.2,55.8,49.2,44.4,86,58,31,30.14,29.81,22,5,22,0.00
2013-3-16,80.7,68.3,56.3,59.9,53.8,44.4,82,61,46,29.81,29.65,23,6,23,0.00
2013-3-17,65.6,58.0,47.1,60.5,49.8,42.5,91,75,58,29.77,29.66,16,3,16,0.00
2013-3-18,67.2,54.2,44.9,47.3,43.5,35.8,94,70,36,30.02,29.63,15,3,17,0.00
2013-3-19,62.2,53.7,45.2,42.3,37.1,31.9,74,55,33,30.15,29.98,14,3,14,0.00
2013-3-20,63.2,52.6,39.3,39.4,33.9,28.8,74,51,29,30.33,30.03,10,1,0,0.00
2013-3-21,64.9,53.5,44.8,53.6,40.0,31.4,82,60,49,30.04,29.56,22,7,22,0.14
2013-3-22,49.3,44.3,40.9,44.1,41.0,38.4,95,88,68,29.88,29.60,18,4,18,0.00
2013-3-23,48.5,45.8,44.0,46.3,44.2,42.0,97,94,91,29.87,29.68,23,2,23,0.30
2013-3-24,50.1,41.6,35.4,42.7,29.1,19.8,95,63,34,30.21,29.85,32,8,32,0.00
2013-3-25,49.9,38.5,27.0,26.1,20.4,15.9,78,51,28,30.42,30.21,21,4,23,0.00
2013-3-26,57.6,41.2,27.0,29.8,23.4,17.7,77,52,28,30.52,30.30,11,1,0,0.00
2013-3-27,69.3,52.8,35.7,42.2,33.5,24.3,68,49,32,30.31,30.07,27,6,27,0.00
2013-3-28,70.8,60.2,48.3,57.3,50.6,41.0,87,71,59,30.20,30.05,22,6,22,0.00
2013-3-29,68.0,63.3,60.6,58.3,56.9,55.8,86,80,70,30.14,30.02,16,6,16,0.00
2013-3-30,77.3,65.9,54.1,66.3,60.5,53.0,97,84,64,30.05,29.85,18,3,18,0.67
2013-3-31,72.6,62.8,52.2,61.1,54.9,47.1,98,78,43,29.97,29.77,27,2,27,0.49
2013-4-1,76.5,61.1,43.1,54.8,48.4,41.9,98,68,36,30.07,29.94,13,1,13,0.00
2013-4-2,59.0,51.9,44.6,52.8,48.9,43.4,97,90,71,30.06,29.95,20,4,20,1.09
2013-4-3,45.7,43.9,40.3,44.7,41.9,37.6,97,93,83,30.17,29.99,19,3,19,0.61
2013-4-4,51.6,43.6,39.6,44.3,40.5,38.6,97,89,72,30.22,30.13,13,3,13,0.04
2013-4-5,68.2,52.4,36.8,50.6,43.7,35.5,96,75,48,30.26,30.01,13,2,13,0.00
2013-4-6,74.7,67.2,54.7,58.6,54.3,47.0,84,65,47,29.93,29.81,24,7,24,0.00
2013-4-7,69.7,64.5,58.6,62.5,59.6,55.8,91,84,77,29.86,29.68,22,7,22,0.00
2013-4-8,75.8,69.4,64.1,66.2,62.7,58.8,88,80,69,29.70,29.61,30,9,30,0.00
2013-4-9,77.5,71.7,66.9,67.4,64.7,61.3,89,79,68,29.69,29.58,26,7,26,0.00
2013-4-10,71.9,42.4,36.4,66.9,39.0,32.7,95,88,69,30.00,29.68,25,7,25,0.58
2013-4-11,61.4,44.3,36.0,39.9,34.4,29.5,90,70,40,30.00,29.81,17,2,17,0.00
2013-4-12,70.9,54.2,37.4,49.7,43.4,36.1,97,70,39,30.01,29.84,10,1,0,0.00
2013-4-13,76.8,63.5,50.3,54.2,48.3,44.1,81,60,34,30.00,29.75,20,5,20,0.00
2013-4-14,80.6,67.6,53.8,64.9,57.4,48.8,84,71,56,29.75,29.48,24,7,24,0.00
2013-4-15,87.3,74.3,65.9,70.1,66.6,64.1,95,78,51,29.69,29.54,23,6,23,0.00
2013-4-16,84.0,75.1,69.3,69.9,66.7,64.0,88,76,59,29.87,29.69,21,6,21,0.00
2013-4-17,82.3,76.0,71.6,70.7,68.7,67.2,94,79,64,29.84,29.53,31,11,31,0.00
2013-4-18,75.5,51.1,40.7,70.5,43.8,32.6,97,77,55,30.15,29.47,31,8,31,0.71
2013-4-19,63.7,47.0,32.5,40.7,32.4,25.5,89,61,28,30.27,30.13,21,3,21,0.00
2013-4-20,69.8,55.5,39.4,43.1,38.3,32.7,85,56,28,30.18,30.00,22,5,22,0.00
2013-4-21,70.3,57.5,47.8,52.2,46.4,39.3,81,67,50,30.19,30.06,19,4,19,0.00
2013-4-22,76.3,63.9,49.7,61.1,53.8,44.7,86,71,54,30.11,29.80,25,6,25,0.00
2013-4-23,66.8,50.4,38.8,60.7,47.1,35.6,96,89,73,30.20,29.76,21,5,21,0.07
2013-4-24,60.9,46.6,35.3,37.8,34.3,30.7,90,66,36,30.34,30.19,20,3,20,0.00
2013-4-25,71.5,54.0,34.4,47.3,41.3,32.6,97,66,36,30.36,30.13,17,2,18,0.00
2013-4-26,72.4,64.2,57.2,66.3,56.3,45.6,90,76,60,30.18,29.94,17,5,17,0.00
2013-4-27,73.1,64.6,55.2,65.3,58.0,52.6,95,80,57,30.09,29.92,18,3,18,0.00
2013-4-28,81.5,64.5,46.8,62.8,56.5,45.9,98,78,47,30.02,29.82,12,1,12,0.00
2013-4-29,86.5,72.1,57.3,68.5,61.1,53.5,98,72,35,29.87,29.73,19,4,19,0.00
2013-4-30,81.5,70.5,57.7,65.9,61.3,55.4,93,74,54,29.80,29.70,20,4,20,0.00
2013-5-1,83.8,70.8,62.1,70.2,63.5,60.1,96,79,52,29.97,29.76,16,4,16,0.00
2013-5-2,65.3,48.3,40.8,60.2,43.1,36.2,93,82,70,30.35,29.97,27,6,27,0.08
2013-5-3,63.9,54.2,33.3,37.5,33.5,27.3,92,50,27,30.30,30.02,25,4,25,0.00
2013-5-4,67.8,51.5,37.0,40.2,35.6,24.0,85,59,21,30.05,29.90,26,3,26,0.00
2013-5-5,66.7,54.1,45.3,49.3,43.7,38.3,89,69,51,30.15,30.05,14,3,14,0.00
2013-5-6,78.5,61.1,44.6,57.5,51.3,42.6,96,73,44,30.12,29.97,10,1,0,0.00
2013-5-7,82.9,67.8,51.3,58.6,54.5,49.3,97,66,37,30.07,29.90,13,2,12,0.00
2013-5-8,85.8,71.3,60.2,61.1,56.6,50.8,91,62,32,29.95,29.82,25,5,25,0.02
2013-5-9,73.1,68.2,61.4,66.9,62.7,57.9,97,83,63,29.93,29.79,14,3,14,0.00
2013-5-10,81.0,69.3,61.2,66.1,60.5,56.2,98,77,45,30.04,29.88,14,2,14,0.01
2013-5-11,81.5,68.2,55.6,57.0,53.8,47.6,92,64,32,30.18,30.02,16,2,16,0.00
2013-5-12,80.2,64.8,49.1,55.2,42.5,32.3,83,50,19,30.25,30.10,15,2,15,0.00
2013-5-13,90.5,72.3,50.6,54.4,48.5,40.7,81,46,26,30.18,30.03,18,2,18,0.00
2013-5-14,89.4,76.3,61.6,61.9,55.4,49.4,72,50,31,30.08,29.92,24,4,24,0.00
2013-5-15,82.0,70.4,61.8,69.4,64.6,57.8,96,83,61,29.96,29.72,26,7,26,0.79
2013-5-16,66.0,63.9,61.4,64.8,62.8,60.5,98,96,94,29.82,29.70,19,3,21,1.01
2013-5-17,87.2,72.3,64.1,76.0,69.6,63.5,99,92,66,29.83,29.75,12,3,0,0.01
2013-5-18,90.5,79.9,70.4,75.5,72.2,69.0,97,79,57,29.84,29.68,19,6,19,0.00
2013-5-19,88.4,79.9,71.5,73.7,69.3,65.1,83,71,59,29.74,29.57,22,10,29,0.00
2013-5-20,88.7,76.8,67.4,73.9,69.0,63.4,90,78,59,29.73,29.57,27,6,28,0.00
2013-5-21,74.8,64.6,57.4,70.8,62.9,56.6,98,94,85,29.83,29.67,29,3,29,1.41
2013-5-22,86.9,73.7,51.8,66.9,61.3,51.5,99,69,38,29.93,29.83,8,1,0,0.01
2013-5-23,85.1,73.1,63.0,72.5,66.7,60.6,96,81,56,30.08,29.86,19,3,19,0.30
2013-5-24,82.8,73.2,65.8,74.6,69.3,64.0,95,88,74,30.15,30.00,16,4,16,0.10
2013-5-25,81.8,69.3,65.4,72.6,66.4,62.7,98,91,69,30.16,29.98,24,3,24,0.76
2013-5-26,85.0,75.1,66.4,74.9,70.8,65.5,97,87,67,30.04,29.87,19,5,19,0.00
2013-5-27,84.8,75.6,69.7,73.0,69.6,67.2,93,82,64,29.93,29.72,22,5,22,0.00
2013-5-28,82.8,77.5,69.7,70.7,68.7,66.3,90,75,64,29.82,29.64,26,8,26,0.00
2013-5-29,81.8,74.3,66.7,73.6,69.3,64.2,95,85,74,29.79,29.64,24,7,24,0.18
2013-5-30,88.5,78.6,67.9,76.0,71.5,66.3,96,80,64,29.73,29.61,27,7,27,0.01
2013-5-31,89.7,81.9,75.3,76.3,73.3,71.4,89,76,63,29.76,29.58,24,8,24,0.00
2013-6-1,82.5,75.8,68.2,73.3,69.4,61.5,96,81,59,29.94,29.60,25,4,25,0.26
2013-6-2,79.4,68.5,60.0,62.0,58.6,51.5,93,73,45,30.07,29.92,15,2,15,0.00
2013-6-3,86.0,72.3,58.3,67.1,62.1,56.3,95,73,45,29.98,29.80,14,2,14,0.00
2013-6-4,88.2,76.4,66.6,74.5,68.4,63.5,96,77,58,30.02,29.76,23,5,23,0.69
2013-6-5,89.3,77.3,70.1,76.5,71.1,68.6,97,82,52,29.94,29.74,20,3,20,0.61
2013-6-6,76.6,70.7,64.0,70.5,66.5,61.4,98,87,71,29.92,29.79,21,2,21,1.36
2013-6-7,83.0,70.8,60.0,67.7,61.0,56.6,96,74,46,29.99,29.87,9,1,0,0.01
2013-6-8,84.8,73.2,59.6,67.0,62.6,57.8,95,72,47,29.92,29.76,17,3,17,0.00
2013-6-9,91.3,76.0,66.1,73.1,68.1,63.6,97,78,47,29.90,29.72,20,2,20,0.38
2013-6-10,96.3,80.4,66.3,74.4,69.8,65.4,98,74,43,29.92,29.83,12,1,12,0.01
2013-6-11,94.5,82.1,69.0,77.0,71.8,66.5,93,73,52,29.96,29.86,18,2,18,0.00
2013-6-12,93.7,84.9,73.0,76.3,73.3,70.7,93,70,52,29.99,29.87,16,2,16,0.00
2013-6-13,97.8,83.2,70.9,78.2,73.3,68.7,93,74,45,29.99,29.84,9,1,0,0.00
2013-6-14,95.8,83.9,70.3,80.6,74.0,68.7,96,75,48,29.94,29.84,13,0,13,0.00
2013-6-15,91.5,81.4,74.3,77.4,74.6,67.9,92,80,60,29.96,29.85,17,2,17,0.00
2013-6-16,96.3,80.7,68.9,77.3,72.0,67.7,97,77,50,29.96,29.81,11,1,0,0.00
2013-6-17,89.2,76.7,66.0,76.0,70.8,64.8,97,83,61,30.01,29.81,20,2,20,0.92
2013-6-18,84.7,76.1,69.4,73.0,69.9,67.1,94,82,63,29.98,29.88,10,1,0,0.00
2013-6-19,88.8,77.2,67.2,76.5,71.7,66.3,98,84,63,29.98,29.83,12,2,0,0.00
2013-6-20,94.9,83.3,74.2,77.3,73.0,69.9,93,73,47,29.98,29.87,13,3,13,0.00
2013-6-21,94.3,83.4,73.6,75.7,71.5,67.3,88,69,43,30.00,29.90,21,4,21,0.00
2013-6-22,94.5,83.7,72.6,74.0,70.8,68.2,90,67,46,29.98,29.82,18,5,18,0.00
2013-6-23,94.3,84.1,73.4,74.2,70.9,68.2,89,66,44,29.92,29.81,19,5,19,0.00
2013-6-24,95.0,85.2,75.1,74.4,71.3,68.7,84,64,46,29.97,29.83,19,5,19,0.00
2013-6-25,95.4,84.8,75.9,75.9,71.1,67.7,80,65,47,29.92,29.75,23,5,23,0.00
2013-6-26,98.3,85.8,76.4,77.5,72.4,66.0,85,65,48,29.89,29.76,19,4,19,0.00
2013-6-27,102.0,87.0,73.4,77.9,73.6,69.3,88,67,39,29.94,29.79,12,1,12,0.00
2013-6-28,99.3,87.2,76.0,76.9,71.6,66.0,83,62,42,29.93,29.79,13,1,13,0.00
2013-6-29,94.5,88.0,72.9,67.4,64.8,61.3,79,48,35,29.88,29.77,15,2,15,0.00
2013-6-30,88.6,78.5,70.9,68.1,61.4,57.1,81,58,37,29.91,29.80,15,2,16,0.00
2013-7-1,86.6,76.1,66.1,62.9,58.8,52.1,75,56,39,30.01,29.91,14,2,15,0.00
2013-7-2,87.8,75.3,62.4,61.6,56.3,51.3,79,54,30,30.07,29.97,16,2,16,0.00
2013-7-3,89.3,75.2,60.1,68.2,57.8,46.0,96,60,24,30.04,29.91,12,1,12,0.00
2013-7-4,93.7,80.5,65.6,66.1,61.1,57.2,80,54,32,29.97,29.85,15,3,15,0.00
2013-7-5,95.8,83.3,72.2,68.2,64.4,61.1,77,55,34,29.95,29.82,15,3,15,0.00
2013-7-6,95.3,83.9,69.9,70.1,65.2,60.6,73,55,35,29.91,29.81,15,4,15,0.00
2013-7-7,96.3,84.8,73.1,72.4,67.6,64.2,79,58,37,29.96,29.88,14,3,14,0.00
2013-7-8,95.5,85.5,75.3,75.7,71.9,68.5,87,66,46,30.03,29.92,14,3,14,0.00
2013-7-9,100.5,87.1,72.4,74.9,68.3,62.8,83,56,33,30.04,29.90,17,3,17,0.00
2013-7-10,104.5,88.7,76.6,74.3,70.1,65.0,79,56,35,29.99,29.84,12,1,13,0.00
2013-7-11,104.8,87.7,76.0,76.3,70.5,67.2,86,60,32,29.91,29.79,17,2,17,0.04
2013-7-12,99.5,85.8,72.5,74.2,71.2,68.4,94,65,41,29.93,29.83,14,3,14,0.00
2013-7-13,99.4,86.6,75.3,71.6,68.1,62.1,82,56,38,29.96,29.82,14,3,14,0.00
2013-7-14,82.2,72.9,66.3,70.9,67.1,61.4,96,83,53,29.99,29.86,8,1,0,0.69
2013-7-15,74.5,68.7,63.3,70.6,66.6,62.1,98,93,85,30.09,29.94,13,2,13,0.96
2013-7-16,88.6,75.8,69.9,74.8,71.6,69.0,97,88,60,30.16,30.06,8,2,25,0.45
2013-7-17,89.4,83.8,74.1,77.7,74.0,70.7,96,73,57,30.21,30.10,16,3,16,0.00
2013-7-18,93.1,79.3,70.3,79.6,73.5,66.2,98,84,54,30.16,29.97,31,0,31,0.63
2013-7-19,94.5,80.4,70.9,76.9,72.9,70.0,97,80,50,30.01,29.88,19,1,21,0.00
2013-7-20,95.3,81.7,70.3,79.8,70.8,-99.9,96,76,45,29.94,29.79,17,2,17,0.00
2013-7-21,97.9,83.2,72.1,77.0,73.2,70.3,95,75,46,29.87,29.77,10,2,0,0.00
2013-7-22,98.2,86.1,76.3,79.2,72.6,-99.9,92,70,47,29.89,29.78,13,2,13,0.00
2013-7-23,98.9,87.7,78.3,81.0,75.0,71.5,82,67,48,29.90,29.73,14,2,14,0.01
2013-7-24,90.1,78.6,69.1,76.2,69.5,-99.9,96,79,61,30.04,29.78,25,3,25,0.36
2013-7-25,90.8,80.1,68.6,75.1,71.8,67.4,97,77,58,30.04,29.93,12,1,0,0.00
2013-7-26,89.7,79.0,73.0,80.0,73.9,69.3,97,85,66,29.98,29.82,16,3,16,0.94
2013-7-27,85.5,76.2,70.5,73.1,66.9,-99.9,94,81,60,30.00,29.89,11,2,12,0.00
2013-7-28,89.5,77.4,68.0,72.7,68.2,-99.9,97,79,51,29.97,29.84,16,2,16,0.00
2013-7-29,89.8,81.1,76.1,77.4,72.8,68.7,90,77,62,29.96,29.85,13,4,12,0.00
2013-7-30,98.2,83.9,72.8,78.2,73.1,65.9,92,71,50,30.00,29.88,17,3,17,0.10
2013-7-31,97.4,85.2,72.9,80.2,75.0,69.6,91,73,54,29.99,29.88,8,1,0,0.00
2013-8-1,95.0,85.1,76.6,80.4,74.3,-99.9,91,76,54,29.98,29.86,11,2,0,0.00
2013-8-2,103.4,88.5,77.1,78.2,72.4,68.5,84,62,34,29.90,29.78,11,3,15,0.00
2013-8-3,100.5,88.6,76.8,74.3,70.3,66.2,81,57,36,29.96,29.84,13,3,13,0.00
2013-8-4,101.3,87.8,74.2,74.9,70.9,67.0,86,60,36,30.00,29.86,17,2,17,0.00
2013-8-5,103.7,88.9,75.7,75.9,71.1,66.0,86,59,34,29.93,29.76,12,2,12,0.00
2013-8-6,105.6,90.8,77.4,74.4,68.7,63.3,77,51,27,29.83,29.71,17,3,17,0.00
2013-8-7,106.2,91.6,80.3,75.1,70.0,65.5,73,51,32,29.81,29.67,14,4,15,0.00
2013-8-8,102.8,88.4,76.5,77.0,69.0,-99.9,77,58,34,29.83,29.71,14,2,14,0.00
2013-8-9,101.2,83.7,77.4,74.9,72.1,68.5,85,70,37,29.94,29.77,20,2,20,0.00
2013-8-10,93.0,82.0,74.7,75.1,72.3,68.1,92,75,47,30.05,29.94,14,2,14,0.00
2013-8-11,98.6,84.3,70.9,75.1,72.1,69.1,95,70,41,30.03,29.91,11,1,0,0.00
2013-8-12,101.1,85.4,72.3,74.9,71.5,68.2,90,67,37,29.98,29.84,15,2,15,0.00
2013-8-13,92.7,82.4,77.4,75.4,73.3,70.8,91,75,53,29.98,29.86,14,2,14,0.00
2013-8-14,89.8,81.2,72.6,73.7,70.2,67.2,91,71,52,30.02,29.91,15,3,15,0.00
2013-8-15,89.2,77.3,67.9,67.6,59.7,-99.9,78,64,46,30.05,29.90,13,3,13,0.00
2013-8-16,86.2,74.5,64.5,70.4,65.5,62.6,97,75,50,30.06,29.94,22,2,22,0.24
2013-8-17,87.2,75.4,61.3,65.1,62.3,58.6,92,66,44,30.09,29.96,15,2,15,0.00
2013-8-18,89.7,77.4,65.8,68.3,60.7,-99.9,89,66,40,30.08,29.96,11,1,0,0.00
2013-8-19,94.1,80.1,67.3,69.4,45.8,-99.9,85,61,36,30.05,29.90,14,2,14,0.00
2013-8-20,92.0,76.7,71.8,63.5,62.3,59.7,74,62,38,29.98,29.90,9,1,0,0.00
2013-8-21,98.0,82.8,67.0,69.6,48.7,-99.9,84,56,30,30.04,29.93,14,2,14,0.00
2013-8-22,100.3,86.0,70.9,71.4,68.0,64.4,84,58,35,30.04,29.87,12,1,12,0.00
2013-8-23,100.3,85.1,76.5,76.2,71.1,66.2,87,65,34,29.99,29.86,18,2,18,0.00
2013-8-24,98.3,86.8,76.4,74.5,70.0,66.0,80,60,37,30.03,29.92,14,3,14,0.00
2013-8-25,98.0,86.4,75.5,72.5,69.1,64.7,82,58,37,30.10,30.00,16,3,16,0.00
2013-8-26,97.0,87.7,73.6,72.1,66.8,61.9,83,52,34,30.13,30.00,17,4,17,0.00
2013-8-27,94.5,81.2,72.4,72.2,66.1,-99.9,90,68,41,30.08,29.95,13,2,13,0.00
2013-8-28,100.0,83.6,69.9,72.8,68.3,65.8,91,64,36,30.05,29.93,12,1,12,0.00
2013-8-29,101.5,89.3,69.6,70.5,66.7,63.9,86,51,31,30.02,29.89,9,1,12,0.00
2013-8-30,104.0,88.0,73.0,70.1,66.2,63.5,78,52,29,29.95,29.80,10,1,13,0.00
2013-8-31,105.7,89.0,72.4,69.3,65.6,61.4,80,50,25,29.85,29.72,15,2,15,0.00
2013-9-1,106.3,88.9,72.1,71.4,66.7,61.6,80,52,26,29.81,29.70,13,1,13,0.00
2013-9-2,98.0,85.8,75.6,74.9,71.2,62.6,91,64,42,29.94,29.80,13,2,13,0.01
2013-9-3,98.2,83.5,71.4,68.2,63.2,55.3,77,54,26,29.97,29.85,11,1,0,0.00
2013-9-4,98.0,85.5,76.0,72.7,68.0,64.6,78,58,35,30.02,29.92,13,3,13,0.00
2013-9-5,98.7,85.6,74.7,71.3,64.2,60.8,65,51,31,30.07,29.95,12,2,12,0.00
2013-9-6,100.3,85.6,73.2,72.0,64.6,60.0,69,52,29,30.05,29.89,13,2,13,0.00
2013-9-7,101.5,86.2,73.9,71.2,66.5,63.4,74,54,33,29.98,29.85,14,1,14,0.00
2013-9-8,99.7,84.1,68.4,71.4,65.6,60.0,91,58,30,29.94,29.82,15,2,15,0.00
2013-9-9,95.6,83.1,67.6,71.7,44.8,-99.9,89,57,34,29.95,29.86,17,3,18,0.00
2013-9-10,95.3,82.3,69.3,72.5,64.6,53.8,90,58,34,30.06,29.91,18,3,20,0.00
2013-9-11,97.3,80.4,67.5,74.1,65.8,57.4,83,63,37,30.09,29.96,15,1,15,0.01
2013-9-12,97.5,83.1,70.0,71.9,68.7,64.7,91,65,36,30.03,29.89,14,1,14,0.00
2013-9-13,96.7,82.7,72.9,72.4,69.8,65.9,89,67,39,29.94,29.81,17,2,18,0.00
2013-9-14,91.5,80.7,70.9,70.6,62.1,55.9,77,55,39,29.97,29.85,15,4,15,0.00
2013-9-15,95.4,82.3,70.3,70.8,55.6,-99.9,70,54,42,30.00,29.90,13,3,14,0.00
2013-9-16,95.3,82.8,69.5,71.2,66.0,62.4,81,59,38,30.06,29.92,12,1,12,0.00
2013-9-17,97.1,83.9,74.9,70.7,66.7,62.8,71,57,36,30.03,29.90,11,2,16,0.00
2013-9-18,97.0,85.3,76.1,71.2,67.5,62.1,76,57,36,29.96,29.81,17,2,17,0.00
2013-9-19,94.2,81.6,70.2,72.2,57.4,-99.9,95,66,45,29.94,29.83,20,2,20,0.26
2013-9-20,73.0,70.5,64.5,71.0,67.9,58.3,97,92,76,29.93,29.85,15,2,15,0.25
2013-9-21,83.0,68.0,57.4,59.7,52.6,42.6,89,63,26,29.99,29.85,15,2,15,0.00
2013-9-22,83.5,68.2,53.3,60.5,53.8,51.5,96,64,35,29.93,29.78,11,1,0,0.00
2013-9-23,85.3,70.1,57.6,58.0,54.2,50.3,84,60,32,29.85,29.71,15,3,15,0.00
2013-9-24,92.3,74.7,59.9,65.0,54.3,43.9,94,56,20,29.91,29.80,14,2,14,0.00
2013-9-25,95.3,73.6,53.0,61.2,53.6,49.3,96,57,23,29.88,29.73,11,1,0,0.00
2013-9-26,95.6,78.3,64.3,62.9,53.3,-99.9,68,51,31,29.84,29.75,12,3,21,0.00
2013-9-27,90.3,78.5,64.4,70.7,66.0,59.3,87,67,49,29.89,29.78,21,5,22,0.00
2013-9-28,80.3,72.3,63.7,75.4,67.7,60.0,97,86,68,30.04,29.81,18,4,18,0.78
2013-9-29,81.2,67.2,57.2,60.6,54.9,46.5,95,70,31,30.05,29.89,12,1,12,0.00
2013-9-30,87.7,68.2,51.9,64.5,54.5,50.5,98,68,29,29.91,29.78,12,1,12,0.00
2013-10-1,89.8,75.9,63.7,70.8,65.5,58.8,98,74,40,29.91,29.81,17,3,17,0.00
2013-10-2,87.5,77.3,70.9,72.7,70.3,68.2,95,80,56,29.95,29.80,16,4,16,0.00
2013-10-3,91.6,80.4,72.4,73.3,70.1,67.7,90,73,49,29.87,29.73,19,6,19,0.00
2013-10-4,90.8,79.7,71.5,71.3,69.3,66.6,93,73,49,29.86,29.76,19,6,19,0.00
2013-10-5,78.3,59.6,50.0,70.6,55.7,44.7,97,88,72,30.07,29.80,18,2,18,0.82
2013-10-6,74.3,56.1,45.0,48.6,42.1,29.2,97,68,19,30.12,30.01,15,1,15,0.01
2013-10-7,78.1,57.9,43.9,49.9,43.5,36.4,88,64,24,30.16,30.05,8,0,0,0.00
2013-10-8,79.5,63.8,47.5,54.0,49.3,44.6,92,63,33,30.11,29.97,13,2,12,0.00
2013-10-9,83.3,67.7,54.6,57.9,54.1,50.6,90,65,36,30.05,29.94,14,3,14,0.00
2013-10-10,83.0,69.5,55.4,64.8,58.4,53.4,94,70,43,30.03,29.84,18,4,18,0.00
2013-10-11,85.7,74.7,65.5,70.8,66.8,59.6,92,77,60,29.89,29.76,19,5,19,0.00
2013-10-12,90.9,78.1,68.1,74.8,69.8,64.3,95,78,49,30.05,29.82,12,2,12,0.00
2013-10-13,78.5,70.4,65.6,70.4,66.9,63.8,96,89,74,30.18,30.04,13,2,13,0.00
2013-10-14,70.3,68.5,66.3,69.7,67.0,64.6,98,95,86,30.12,29.88,17,5,19,1.46
2013-10-15,71.0,61.4,52.2,70.1,60.3,50.5,98,96,93,30.08,29.86,16,3,17,0.97
2013-10-16,63.9,56.1,50.6,52.4,48.0,44.8,97,76,53,30.12,30.01,14,2,14,0.21
2013-10-17,72.2,54.8,41.6,51.9,46.7,40.3,96,77,46,30.12,29.97,9,1,0,0.00
2013-10-18,69.0,56.0,46.8,56.7,50.7,43.6,94,84,49,30.13,29.88,16,2,16,0.04
2013-10-19,66.3,49.4,36.2,44.6,40.3,34.6,95,74,37,30.22,30.06,16,2,16,0.00
2013-10-20,71.0,54.5,39.2,47.9,42.8,38.2,96,69,34,30.07,29.85,21,4,21,0.00
2013-10-21,64.0,55.1,48.5,55.3,49.4,41.3,93,81,72,30.12,29.88,11,1,0,0.00
2013-10-22,75.2,55.6,38.2,53.4,44.3,36.4,95,70,36,30.16,30.00,15,2,15,0.00
2013-10-23,81.9,60.8,45.6,55.8,50.1,44.4,98,72,33,30.13,29.99,10,1,0,0.00
2013-10-24,69.4,58.4,48.3,53.3,47.0,38.6,91,68,42,30.29,30.02,15,2,15,0.00
2013-10-25,66.0,57.4,47.5,45.8,42.4,36.8,77,58,44,30.43,30.24,18,4,18,0.00
2013-10-26,69.5,56.2,50.0,64.0,53.1,44.6,98,90,78,30.24,30.03,14,2,15,0.92
2013-10-27,64.3,58.1,51.7,60.6,56.7,50.8,98,95,85,30.12,30.00,6,0,0,0.00
2013-10-28,70.3,64.3,51.7,66.2,62.5,50.8,99,94,86,30.10,29.99,12,4,0,0.01
2013-10-29,75.2,70.7,66.9,69.8,67.5,64.8,94,90,82,30.03,29.94,19,6,19,0.00
2013-10-30,70.6,67.5,63.5,68.8,66.0,62.9,99,95,90,29.96,29.74,23,8,23,0.24
2013-10-31,68.5,63.2,50.4,67.0,55.4,43.5,99,78,41,29.84,29.63,27,4,27,0.01
2013-11-1,75.8,58.7,43.5,54.7,46.2,42.6,98,68,33,30.09,29.81,14,1,14,0.00
2013-11-2,66.6,52.9,40.7,44.6,39.4,34.2,93,64,31,30.30,30.08,15,2,15,0.00
2013-11-3,65.2,51.6,36.3,47.1,40.8,34.4,95,70,41,30.21,29.99,18,4,18,0.00
2013-11-4,60.8,56.8,52.5,57.4,52.6,46.4,97,86,71,30.07,29.97,16,5,16,0.33
2013-11-5,67.3,62.8,58.0,66.4,61.8,57.2,98,96,91,30.06,29.91,15,4,15,0.30
2013-11-6,68.1,51.8,42.4,66.9,45.4,37.1,97,80,51,30.38,29.91,16,3,16,0.05
2013-11-7,61.3,46.9,34.9,45.0,39.6,33.3,94,78,47,30.52,30.37,8,1,0,0.00
2013-11-8,67.1,52.5,38.4,47.8,41.9,37.4,97,70,39,30.38,30.11,23,2,23,0.00
2013-11-9,68.1,58.6,53.2,53.9,49.3,44.8,79,71,59,30.23,30.09,17,4,17,0.00
2013-11-10,65.8,55.8,45.8,52.5,48.5,44.7,96,77,59,30.34,30.23,7,1,0,0.00
2013-11-11,73.5,58.2,44.4,58.9,52.2,43.6,98,82,56,30.29,30.16,9,1,0,0.00
2013-11-12,61.2,43.8,31.5,57.2,29.3,17.0,88,59,31,30.71,30.29,18,4,18,0.00
2013-11-13,52.6,36.4,25.3,29.2,25.0,19.9,89,65,37,30.72,30.38,10,1,0,0.00
2013-11-14,54.0,43.0,27.7,43.3,31.4,24.0,86,66,41,30.38,30.00,16,4,16,0.00
2013-11-15,69.7,56.9,45.7,57.4,49.9,43.3,95,79,53,30.00,29.81,14,3,13,0.00
2013-11-16,74.0,67.0,59.7,67.0,62.1,57.1,94,84,68,29.82,29.60,22,7,22,0.00
2013-11-17,81.0,69.7,59.9,68.1,54.3,31.5,94,63,27,30.02,29.63,16,4,16,0.00
2013-11-18,66.2,58.0,50.2,42.5,34.2,25.2,61,41,29,30.20,30.01,15,2,15,0.00
2013-11-19,64.5,57.2,52.2,37.7,33.7,28.7,54,42,27,30.19,30.00,17,6,17,0.00
2013-11-20,62.6,56.1,46.8,54.1,42.0,32.7,82,60,44,30.01,29.87,20,6,20,0.00
2013-11-21,69.1,57.6,36.7,68.5,55.4,35.2,98,92,78,30.27,29.93,22,5,22,0.30
2013-11-22,36.8,33.2,32.0,35.5,31.6,30.0,97,94,88,30.52,30.26,20,5,20,0.37
2013-11-23,40.2,35.8,32.8,34.0,29.9,21.8,97,80,53,30.61,30.49,17,3,17,0.01
2013-11-24,33.6,29.9,28.9,28.2,23.8,17.6,93,78,62,30.65,30.36,13,2,13,0.00
2013-11-25,34.9,32.6,29.9,33.4,31.2,28.1,96,94,92,30.37,30.20,9,1,0,0.08
2013-11-26,49.9,39.7,33.8,36.0,31.1,24.6,94,73,45,30.41,30.18,20,4,20,0.00
2013-11-27,44.4,32.2,22.3,24.5,18.3,15.1,87,58,32,30.49,30.35,10,1,0,0.00
2013-11-28,56.2,35.6,22.0,32.2,25.5,18.7,89,69,36,30.47,30.36,13,1,13,0.00
2013-11-29,57.7,40.2,23.5,39.9,30.9,21.5,94,72,39,30.52,30.34,11,2,0,0.00
2013-11-30,65.2,50.2,35.3,52.4,44.3,32.4,93,81,63,30.36,30.12,16,2,17,0.00
2013-12-1,62.9,54.5,46.6,57.1,52.0,45.3,97,92,80,30.13,29.89,10,1,0,0.00
2013-12-2,64.6,48.7,37.3,54.4,46.3,36.5,98,92,67,29.89,29.67,6,0,0,0.01
2013-12-3,69.8,51.6,42.6,53.8,45.6,40.6,98,83,43,29.68,29.50,7,1,0,0.01
2013-12-4,62.7,51.0,37.7,47.3,41.3,29.6,87,70,47,29.95,29.54,15,2,15,0.00
2013-12-5,37.8,29.4,24.2,30.1,22.8,18.5,94,77,62,30.24,29.95,20,5,20,0.00
2013-12-6,26.6,23.0,19.4,22.4,19.2,12.5,94,85,74,30.58,30.19,16,4,16,0.00
2013-12-7,24.3,20.4,14.9,18.7,13.1,7.2,80,73,67,30.63,30.30,13,2,13,0.00
2013-12-8,35.7,27.7,22.7,29.0,24.2,18.5,95,87,74,30.30,30.06,9,1,0,0.03
2013-12-9,30.0,27.9,25.0,28.4,25.5,22.5,95,91,87,30.32,30.21,9,2,0,0.00
2013-12-10,38.4,26.4,20.8,21.4,18.8,16.9,85,74,49,30.39,30.36,5,1,0,0.09
2013-12-11,41.2,30.4,20.6,30.2,24.5,17.3,94,80,59,30.64,30.34,10,1,0,0.11
2013-12-12,42.7,32.1,21.1,30.7,25.9,18.8,92,79,60,30.65,30.33,11,1,0,0.06
2013-12-13,40.8,39.5,35.0,40.0,38.2,30.7,97,95,84,30.33,29.80,14,4,15,0.13
2013-12-14,41.0,36.6,26.3,40.4,32.9,23.2,98,87,70,30.33,29.82,19,3,19,0.01
2013-12-15,61.4,39.6,22.3,37.3,29.8,20.6,96,72,36,30.35,30.21,7,0,0,0.00
2013-12-16,63.0,44.8,32.5,42.1,35.3,29.9,91,72,41,30.23,30.13,10,1,0,0.00
2013-12-17,70.3,47.7,29.7,41.9,35.2,28.2,96,67,29,30.30,30.18,6,0,0,0.00
2013-12-18,68.3,50.0,29.6,47.2,39.4,27.8,95,70,39,30.26,29.96,17,4,17,0.00
2013-12-19,66.9,59.9,52.9,58.8,54.2,46.1,92,82,72,29.96,29.69,24,8,24,0.00
2013-12-20,63.9,46.0,31.6,61.0,44.0,30.5,96,93,83,29.88,29.71,17,4,17,0.05
2013-12-21,41.6,36.8,31.8,41.1,36.0,30.8,98,97,95,29.84,29.55,13,2,13,2.51
2013-12-22,38.7,33.1,25.5,35.0,28.3,22.3,95,83,67,30.43,29.84,16,4,16,0.00
2013-12-23,42.2,29.9,23.2,30.6,25.3,21.1,93,84,61,30.61,30.42,11,1,0,0.00
2013-12-24,49.2,34.6,21.7,35.1,28.7,20.2,95,80,57,30.60,30.26,19,4,19,0.00
2013-12-25,49.7,37.9,27.6,37.6,32.5,25.5,95,81,61,30.44,30.27,13,2,13,0.00
2013-12-26,55.9,36.1,23.9,37.9,28.3,22.8,97,77,37,30.47,30.34,6,0,0,0.00
2013-12-27,58.2,38.2,24.8,39.5,31.0,23.6,97,78,42,30.47,30.34,7,0,0,0.01
2013-12-28,58.8,44.5,29.3,44.1,37.0,28.0,96,77,53,30.34,29.96,11,2,12,0.00
2013-12-29,44.2,35.0,28.6,40.9,29.7,19.4,94,81,68,30.32,29.94,15,4,19,0.00
2013-12-30,42.4,29.4,21.6,22.6,18.3,14.1,82,64,42,30.44,30.29,9,2,0,0.00
2013-12-31,53.2,36.7,19.0,30.7,24.9,16.6,91,65,41,30.46,30.20,14,3,14,0.00
2014-1-1,65.6,44.0,28.6,46.8,33.4,21.1,83,68,48,30.23,29.85,21,6,21,0.00
2014-1-2,38.7,27.3,21.1,21.6,17.9,15.1,87,69,45,30.51,30.23,21,4,21,0.00